Snowfall_Accumulation
0.0 0.0 0.0 0.0 0.0 0.0 0.0 0.0 0.0 0.0 0.0 0.0 0.0 0.0 0.0 0.0 0.0 0.0 0.0 0.0 0.0 0.0 0.0 0.0 0.0 0.0 0.0 0.0 0.0 0.0 0.0 0.0 0.0 0.0 0.0 0.0 0.0 0.0
0.0 0.0 0.0 0.0 0.0 0.0 0.0 0.0 0.0 0.0 0.0 0.0 0.0 0.0 0.0 0.0 0.0 0.0 0.0 0.0 0.0 0.0 0.0 0.0 0.0 0.0 0.0 0.0 0.0 0.0 0.0 0.0 0.0 0.0 0.0 0.0 0.0 0.0
0.0 0.0 0.0 0.0 0.0 0.0 0.0 0.0 0.0 0.0 0.0 0.0 0.0 0.0 0.0 0.0 0.0 0.0 0.0 0.0 0.0 0.0 0.0 0.0 0.0 0.0 0.0 0.0 0.0 0.0 0.0 0.0 0.0 0.0 0.0 0.0 0.0 0.0
0.0 0.0 0.0 0.0 0.0 0.0 0.0 0.0 0.0 0.0 0.0 0.0 0.0 0.0 0.0 0.0 0.0 0.0 0.0 0.0 0.0 0.0 0.0 0.0 0.0 0.0 0.0 0.0 0.0 0.0 0.0 0.0 0.0 0.0 0.0 0.0 0.0 0.0
0.0 0.0 0.0 0.0 0.0 0.0 0.0 0.0 0.0 0.0 0.0 0.0 0.0 0.0 0.0 0.0 0.0 0.0 0.0 0.0 0.0 0.0 0.0 0.0 0.0 0.0 0.0 0.0 0.0 0.0 0.0 0.0 0.0 0.0 0.0 0.0 0.0 0.0
0.0 0.0 0.0 0.0 0.0 0.0 0.0 0.0 0.0 0.0 0.0 0.0 0.0 0.0 0.0 0.0 0.0 0.0 0.0 0.0 0.0 0.0 0.0 0.0 0.0 0.0 0.0 0.0 0.0 0.0 0.0 0.0 0.0 0.0 0.0 0.0 0.0 0.0
0.0 0.0 0.0 0.0 0.0 0.0 0.0 0.0 0.0 0.0 0.0 0.0 0.0 0.0 0.0 0.0 0.0 0.0 0.0 0.0 0.0 0.0 0.0 0.0 0.0 0.0 0.0 0.0 0.0 0.0 0.0 0.0 0.0 0.0 0.0 0.0 0.0 0.0
0.0 0.0 0.0 0.0 0.0 0.0 0.0 0.0 0.0 0.0 0.0 0.2 0.0 0.0 0.0 0.0 0.0 0.0 0.0 0.0 0.0 0.0 0.0 0.0 0.0 0.0 0.0 0.0 0.0 0.0 0.0 0.0 0.0 0.0 0.0 0.0 0.0 0.0
0.1 0.1 0.0 0.0 0.0 0.0 0.0 0.0 0.0 0.0 0.0 0.0 0.0 0.0 0.0 0.0 0.0 0.0 0.0 0.0 0.0 0.0 0.0 0.0 0.0 0.0 0.0 0.0 0.0 0.0 0.0 0.0 0.0 0.0 0.0 0.0 0.0 0.0
0.0 0.1 0.1 0.1 0.0 0.0 0.1 0.2 0.1 0.1 0.0 0.0 0.0 0.0 0.0 0.0 0.0 0.0 0.0 0.0 0.0 0.0 0.0 0.0 1.9 0.0 0.0 0.0 0.0 0.0 0.0 0.0 0.0 0.0 0.0 0.0 0.0 0.0
0.0 0.0 0.1 0.1 0.0 0.0 0.4 0.5 0.2 0.2 0.0 0.0 0.0 0.0 0.0 0.0 0.0 0.0 0.0 0.1 0.0 0.0 0.0 0.0 0.0 1.6 2.7 3.8 4.3 0.0 0.0 0.0 0.0 0.0 0.0 0.0 0.0 0.2
0.0 0.0 0.0 0.0 0.0 0.0 0.4 0.6 0.4 0.1 0.0 0.3 0.3 0.0 0.0 0.0 0.0 0.0 0.0 0.0 0.0 0.0 0.0 0.1 0.0 0.8 1.9 3.0 3.1 4.2 4.2 3.6 0.0 0.0 0.0 0.8 0.4 0.0
0.3 0.2 0.2 0.2 0.4 0.0 0.0 0.6 0.3 0.0 0.0 0.2 0.4 0.0 0.0 0.0 0.0 0.0 0.0 0.0 0.2 0.0 0.0 0.0 0.0 0.4 0.8 1.7 2.7 2.6 2.7 2.7 2.2 1.6 1.0 0.4 0.2 0.0
0.3 0.2 0.2 0.3 0.4 0.5 0.0 0.7 0.3 0.1 0.3 0.5 0.4 0.0 0.1 0.0 0.0 0.0 0.0 0.0 0.0 0.0 0.0 0.0 0.0 0.0 0.4 1.0 1.5 2.5 2.6 2.5 2.0 1.8 1.3 0.7 0.3 0.2
0.2 0.1 0.0 0.0 0.0 0.0 0.0 0.4 0.5 0.6 0.6 0.4 0.6 0.3 0.1 0.0 0.0 0.0 0.0 0.0 0.0 0.0 0.0 0.0 0.0 0.0 0.2 0.6 0.8 1.2 1.6 2.3 2.3 2.0 1.4 0.9 0.5 0.3
0.1 0.1 0.0 0.0 0.3 0.4 0.3 0.3 0.6 0.6 0.4 0.2 0.1 0.4 0.0 0.0 0.1 0.0 0.0 0.1 0.6 1.0 0.9 0.3 0.0 0.0 0.5 0.5 0.3 0.7 0.9 1.5 1.8 1.8 1.6 1.2 0.9 0.6
0.1 0.3 0.2 0.2 0.2 0.2 0.4 0.2 0.3 0.3 0.3 0.3 0.3 0.3 0.4 0.1 0.1 0.0 0.0 0.0 0.2 0.4 0.6 0.7 0.6 0.5 0.3 0.0 0.4 0.5 0.5 0.6 0.9 1.1 1.2 1.2 1.1 0.8
0.3 0.2 0.2 0.3 0.2 0.1 0.4 0.6 0.3 0.2 0.2 0.0 0.0 0.3 0.2 0.1 0.2 0.2 0.4 0.2 0.0 0.2 0.3 0.4 0.4 0.2 0.0 0.4 0.0 0.2 0.4 0.2 0.3 0.3 0.3 0.4 0.2 0.0
0.1 0.2 0.3 0.3 0.3 0.2 0.2 0.4 0.6 0.6 0.4 0.4 0.5 0.2 0.0 0.0 0.0 0.0 0.4 0.5 0.3 0.1 0.2 0.2 0.1 0.0 0.1 0.1 0.1 0.1 0.1 0.0 0.0 0.1 0.1 0.0 0.0 0.0
0.1 0.1 0.2 0.2 0.2 0.2 0.3 0.4 0.5 0.5 0.4 0.4 0.3 0.3 0.3 0.0 0.0 0.2 0.3 0.3 0.3 0.3 0.2 0.2 0.2 0.2 0.1 0.1 0.0 0.0 0.0 0.0 0.0 0.0 0.0 0.0 0.0 0.0
0.1 0.2 0.2 0.1 0.1 0.2 0.3 0.4 0.5 0.5 0.5 0.4 0.3 0.3 0.4 0.4 0.3 0.3 0.2 0.2 0.3 0.4 0.4 0.5 0.4 0.3 0.0 0.0 0.0 0.2 0.1 0.0 0.0 0.0 0.0 0.0 0.0 0.0
0.3 0.3 0.3 0.3 0.2 0.1 0.3 0.4 0.5 0.6 0.4 0.3 0.5 0.3 0.3 0.3 0.3 0.4 0.4 0.3 0.5 0.5 0.4 0.0 0.0 0.0 0.0 0.0 0.1 0.1 0.1 0.0 0.0 0.0 0.0 0.0 0.0 0.0
0.3 0.3 0.2 0.2 0.2 0.2 0.2 0.2 0.2 0.4 0.4 0.4 0.3 0.3 0.3 0.5 0.6 0.6 0.5 0.4 0.0 0.0 0.0 0.1 0.1 0.0 0.0 0.0 0.0 0.0 0.0 0.0 0.0 0.0 0.0 0.0 0.0 0.0